Weather History for Branson, MO

Change the Weather History Date:

Tuesday, April 23, 2013

  Actual Average (KHRO) Record (KHRO)
Temperature  
Mean Temperature 48 °F 60 °F  
Max Temperature 62 °F 71 °F 90 °F (1965)
Min Temperature 35 °F 49 °F 25 °F (1951)
Degree Days  
Heating Degree Days 16 6  
Month to date heating degree days 204  
Since 1 July heating degree days 3884  
Cooling Degree Days 0 1  
Month to date cooling degree days 23  
Year to date cooling degree days 29  
Moisture  
Dew Point 44 °F    
Average Humidity 77    
Maximum Humidity 100    
Minimum Humidity 55    
Precipitation  
Precipitation 0.12 in 0.16 in 3.42 in (2011)
Month to date precipitation 3.17  
Year to date precipitation 12.16  
Snow  
Snow 0.00 in 0.00 in - ()
Month to date snowfall 0.3  
Since 1 July snowfall 11.5  
Snow Depth -    
Sea Level Pressure  
Sea Level Pressure 29.96 in    
Wind  
Wind Speed 9 mph (South)    
Max Wind Speed 16 mph    
Max Gust Speed 23 mph    
Visibility 8 miles    
Events Rain , Thunderstorm    
T = Trace of Precipitation, MM = Missing Value Source: NWS Daily Summary

Daily Weather History Graph

Daily Weather History Graph

Search for Another Location

Airport:

Trip Planner

Search our weather history database for the weather conditions in past years. The results will help you decide how hot, cold, wet, or windy it might be!

Date:

Astronomy

Apr. 23, 2013 Rise Set
Actual Time 6:28 AM CDT 7:54 PM CDT
Civil Twilight 6:01 AM CDT 8:21 PM CDT
Nautical Twilight 5:28 AM CDT 8:54 PM CDT
Astronomical Twilight 4:54 AM CDT 9:28 PM CDT
Moon 5:52 PM CDT (4/23) 4:53 AM CDT (4/23)
Length of Visible Light 14h 20m
Length of Day
13h 25m
Waxing Gibbous, 94% of the Moon is Illuminated
Apr 23
Waxing Gibbous
Apr 25
Full
May 2
Last Quarter
May 9
New
May 17
First Quarter

Hourly Weather History & Observations

Time (CDT) Temp. Windchill Dew Point Humidity Pressure Visibility Wind Dir Wind Speed Gust Speed Precip Events Conditions
12:15 AM 59.0 °F - 42.8 °F 55% 30.00 in 10.0 mi SE 10.4 mph - N/A   Clear
12:35 AM 59.0 °F - 42.8 °F 55% 29.99 in 10.0 mi SE 10.4 mph - N/A   Clear
12:55 AM 59.0 °F - 42.8 °F 55% 29.99 in 10.0 mi SE 11.5 mph - N/A   Partly Cloudy
1:15 AM 59.0 °F - 42.8 °F 55% 29.99 in 10.0 mi SSE 11.5 mph - N/A   Partly Cloudy
1:35 AM 59.0 °F - 42.8 °F 55% 29.98 in 10.0 mi SSE 10.4 mph - N/A   Clear
1:55 AM 59.0 °F - 42.8 °F 55% 29.98 in 10.0 mi SSE 9.2 mph - N/A   Scattered Clouds
2:15 AM 57.2 °F - 42.8 °F 59% 29.98 in 10.0 mi SSE 6.9 mph - N/A   Overcast
2:35 AM 59.0 °F - 42.8 °F 55% 29.97 in 10.0 mi SSE 9.2 mph - N/A   Overcast
2:55 AM 59.0 °F - 42.8 °F 55% 29.95 in 10.0 mi SSE 9.2 mph - N/A   Overcast
3:15 AM 59.0 °F - 42.8 °F 55% 29.94 in 10.0 mi SSE 9.2 mph - N/A   Overcast
3:35 AM 59.0 °F - 44.6 °F 59% 29.94 in 10.0 mi SSE 8.1 mph - N/A   Overcast
3:55 AM 59.0 °F - 44.6 °F 59% 29.91 in 10.0 mi SE 10.4 mph - N/A   Mostly Cloudy
4:15 AM 57.2 °F - 44.6 °F 63% 29.89 in 10.0 mi SE 10.4 mph - N/A   Mostly Cloudy
4:35 AM 59.0 °F - 44.6 °F 59% 29.90 in 10.0 mi SSE 5.8 mph - N/A   Overcast
4:55 AM 59.0 °F - 44.6 °F 59% 29.89 in 10.0 mi SSE 9.2 mph - N/A   Overcast
5:15 AM 59.0 °F - 44.6 °F 59% 29.89 in 10.0 mi SSE 8.1 mph - N/A   Overcast
5:35 AM 59.0 °F - 44.6 °F 59% 29.91 in 10.0 mi SSW 5.8 mph - N/A   Overcast
5:55 AM 59.0 °F - 44.6 °F 59% 29.87 in 10.0 mi ESE 10.4 mph - N/A   Overcast
6:15 AM 55.4 °F - 48.2 °F 77% 29.91 in 5.0 mi Calm Calm - N/A Rain Light Rain
6:35 AM 55.4 °F - 50.0 °F 82% 29.89 in 10.0 mi SE 5.8 mph - 0.01 in   Overcast
6:48 AM 53.6 °F - 50.0 °F 88% 29.89 in 6.0 mi SSE 8.1 mph - N/A Rain Light Rain
7:11 AM 53.6 °F - 50.0 °F 88% 29.85 in 10.0 mi SE 10.4 mph - N/A Thunderstorm Thunderstorm
7:48 AM 53.6 °F - 50.0 °F 88% 29.91 in 7.0 mi NNE 12.7 mph - N/A Rain Light Rain
8:45 AM 53.6 °F - 53.6 °F 100% 29.93 in 7.0 mi NE 6.9 mph - N/A Rain Light Rain
9:54 AM 57.2 °F - 55.4 °F 94% 29.94 in 7.0 mi Calm Calm - N/A   Mostly Cloudy
10:46 AM 59.0 °F - 55.4 °F 88% 29.93 in 10.0 mi Calm Calm - N/A   Mostly Cloudy
11:50 AM 59.0 °F - 55.4 °F 88% 29.93 in 10.0 mi Calm Calm - N/A   Overcast
12:56 PM 60.8 °F - 55.4 °F 82% 29.91 in 10.0 mi North 5.8 mph - N/A   Overcast
1:47 PM 62.6 °F - 55.4 °F 77% 29.90 in 10.0 mi NNW 6.9 mph - N/A   Overcast
2:45 PM 59.0 °F - 51.8 °F 77% 29.90 in 10.0 mi NW 8.1 mph - N/A   Overcast
3:45 PM 50.0 °F - 46.4 °F 87% 29.92 in 10.0 mi NW 12.7 mph 18.4 mph N/A   Overcast
4:45 PM 44.6 °F 39.2 °F 41.0 °F 87% 29.94 in 3.0 mi NW 10.4 mph - N/A   Overcast
5:45 PM 41.0 °F 32.8 °F 39.2 °F 93% 29.96 in 2.0 mi NW 16.1 mph 23.0 mph N/A   Overcast
6:45 PM 39.2 °F 32.5 °F 37.4 °F 93% 29.99 in 1.5 mi NW 10.4 mph 17.3 mph N/A Rain Light Rain
7:45 PM 37.4 °F 31.4 °F 37.4 °F 100% 30.02 in 2.0 mi NW 8.1 mph - N/A Rain Light Rain
8:45 PM 37.4 °F 29.8 °F 37.4 °F 100% 30.04 in 3.0 mi NW 11.5 mph 18.4 mph N/A Rain Light Rain
9:15 PM 37.4 °F 30.8 °F 35.6 °F 93% 30.05 in 3.0 mi NW 9.2 mph - N/A Rain Light Rain
9:35 PM 37.4 °F 30.8 °F 35.6 °F 93% 30.06 in 2.5 mi NW 9.2 mph - 0.03 in Rain Rain
9:55 PM 37.4 °F 29.8 °F 35.6 °F 93% 30.08 in 1.8 mi NW 11.5 mph - 0.09 in Rain Rain
10:15 PM 37.4 °F 28.5 °F 35.6 °F 93% 30.08 in 2.5 mi NNW 15.0 mph - 0.01 in Rain Light Rain
10:35 PM 37.4 °F 29.8 °F 35.6 °F 93% 30.08 in 3.0 mi NW 11.5 mph - 0.01 in Rain Light Rain
10:55 PM 35.6 °F 27.5 °F 35.6 °F 100% 30.08 in 5.0 mi NW 11.5 mph 18.4 mph 0.02 in Rain Light Rain
11:15 PM 35.6 °F 28.0 °F 35.6 °F 100% 30.07 in 10.0 mi NW 10.4 mph 17.3 mph N/A Thunderstorm Mostly Cloudy
11:35 PM 35.6 °F 31.7 °F 35.6 °F 100% 30.09 in 10.0 mi NW 4.6 mph - N/A   Overcast
11:55 PM 35.6 °F 28.6 °F 35.6 °F 100% 30.09 in 10.0 mi NW 9.2 mph - N/A Thunderstorm Overcast